Find MMS 4

NORAD ID: 40485 Int'l Des: 2015-011 Owner: GSFC Country: US operational
HEOELLIPTICALHEO_ELLIPTICAL

現在のビュー

3D地球を読み込み中...

MMS 4について

説明を読み込み中...

次回通過

Passes for default location (London). Set your location on the main map for personalized predictions.

高度履歴

Loading altitude history...

軌道要素

1 40485U 15011D 26149.58337963 -.00000286 00000-0 00000+0 0 9991
2 40485 71.9441 349.0526 8340626 167.0012 200.8757 0.28362711 1385
Epoch: May 29, 2026 • Age: 13 hours

現在のステータス

高度 151499.9 km
速度 0.99 km/s
衛星直下点 0.47°N, 63.13°E
打ち上げ日 Mar 13, 2015
運用期間 11.2 years
タイプ other

技術仕様

分類 Payload
質量 1360.00 kg
乾燥質量 1000.00 kg
総質量 1360.00 kg
長さ 1.20 m
直径 3.60 m
スパン 112.00 m
形状 Cylinder+antennae
製造者 GSFC
バスタイプ MMS-SMART
フェーズステータス Deep Space
所有者/国 GSFC/US

Most Searched